ASTRA 3B

Last updated on Thu Oct 30 2025 00:02:48 GMT+0000 (Coordinated Universal Time)

1 36581U 10021A 25302.47575772 .00000148 00000+0 00000+0 0 9994 2 36581 0.8692 86.5350 0002515 116.2204 30.0917 1.00273476 56557
UTC large
Height (km)
Speed (km/s)
/
Latitude / Longitude
Inclination (degrees)
Orbital Period (minutes)
Azimuth
Elevation
Range (km)
Doppler Factor

Next 0 passes for location: London (51.5072 / 0.1276)

Sorry there are no passes over London.